Regional Weather Roundup
Issued by NWS

Home | Current Version | Previous Version | Text Only | Print | Product List | Glossary On
Versions: 1 2 3 4 5 6 7 8 9 10 11 12 13 14 15 16 17 18 19 20 21 22 23 24 25 26 27 28 29 30 31 32 33 34 35 36 37 38 39 40 41 42 43 44 45 46 47 48 49 50
000
ASUS43 KLSX 021059
RWRMO

WEATHER SUMMARY FOR MISSOURI
NATIONAL WEATHER SERVICE SPRINGFIELD MO
600 AM CDT THU OCT 02 2014

NOTE: "FAIR" INDICATES FEW OR NO CLOUDS BELOW 12,000 FEET WITH NO
       SIGNIFICANT WEATHER AND/OR OBSTRUCTIONS TO VISIBILITY.
       CURRENT SKY AND/OR WEATHER CONDITIONS ARE NOT AVAILABLE FOR
       CHILLICOTHE AND FARMINGTON.

MOZ001>031-035>038-043-044-053-054-021200-
...NORTHERN AND WESTERN MISSOURI...

CITY           SKY/WX    TMP DP  RH WIND       PRES   REMARKS
KANSAS CTY INT CLOUDY    67  64  90 SE12      29.73S
KANSAS C DTWN  MOCLDY    68  64  87 VRB3      29.72F
LEE`S SUMMIT   CLOUDY    66  64  93 SE7       29.75F
ST JOSEPH      CLOUDY    66  64  93 NE5       29.75R
CHILLICOTHE      N/A     65  63  93 SE5       29.78F
KIRKSVILLE     CLOUDY    63  63 100 SE3       29.80F

$$
MOZ066>068-077>081-088>096-101>105-021200-
...SOUTHWEST MISSOURI...

CITY           SKY/WX    TMP DP  RH WIND       PRES   REMARKS
SPRINGFIELD    TSTM      72  69  90 S17       29.81R FOG
JOPLIN         TSTM      66  64  93 NW16G22   29.85R

$$
MOZ032>034-039>042-045>050-055>058-069>072-021200-
...CENTRAL MISSOURI...

CITY           SKY/WX    TMP DP  RH WIND       PRES   REMARKS
COLUMBIA       TSTM      65  64  97 S14       29.81S
ROLLA          CLOUDY    67  65  93 NE8       29.85R
SEDALIA        TSTM      68  65  90 SW7       29.81R
OSAGE BEACH    CLOUDY    66  63  88 NE8       29.82F

$$
MOZ051-052-059>065-021200-
...EAST CENTRAL MISSOURI...

CITY           SKY/WX    TMP DP  RH WIND       PRES   REMARKS
ST LOUIS INTL  LGT RAIN  68  65  90 E6        29.88S
SPIRIT OF STL  CLOUDY    66  64  93 CALM      29.87R
ST CHARLES     CLOUDY    66  65  96 N6        29.88R

$$
MOZ072>076-082>087-097>100-106>115-021200-
...SOUTH CENTRAL AND SOUTHEAST MISSOURI...

CITY           SKY/WX    TMP DP  RH WIND       PRES   REMARKS
CAPE GIRARDEAU CLOUDY    72  62  71 S9        29.90R
FARMINGTON     PTCLDY    70  64  83 S8        29.90R
POPLAR BLUFF   CLEAR     67  61  81 CALM      29.88R
WEST PLAINS    PTCLDY    69  66  90 S5        29.88R

$$


USA.gov is the U.S. government's official web portal to all federal, state and local government web resources and services.